Location: Central Coast NSW, Australia
(33.2407°S, 151.4316°E)
Time: 21:29:50
(UTC+10:00)

Tiangong - Visible Passes

Search period start: 21 April 2024 00:00
Search period end: 01 May 2024 00:00
Orbit: 371 x 379 km, 41.5° (Epoch: 21 April)

Date Brightness Start Highest point End Pass type
(mag) Time Alt. Az. Time Alt. Az. Time Alt. Az.
21 Apr 0.7 04:31:53 12° NNE 04:32:46 14° NE 04:34:26 10° ENE visible
22 Apr -1.4 05:04:50 26° NNW 05:06:17 50° NNE 05:09:23 10° ESE visible
23 Apr 1.2 04:05:30 14° E 04:05:30 14° E 04:06:09 10° E visible
23 Apr -1.7 05:37:33 14° W 05:40:01 46° SSW 05:43:07 10° SE visible
24 Apr -1.0 04:38:01 41° ESE 04:38:01 41° ESE 04:40:15 10° ESE visible
25 Apr -1.2 05:10:22 30° SW 05:10:48 32° SSW 05:13:43 10° SE visible
26 Apr 1.2 04:10:32 12° SE 04:10:32 12° SE 04:10:48 10° SE visible
26 Apr -0.3 05:42:32 11° SW 05:44:42 20° S 05:47:08 10° SE visible
27 Apr 0.0 04:42:35 20° SSE 04:42:35 20° SSE 04:44:06 10° SE visible
28 Apr -0.2 05:14:33 17° SSW 05:15:16 18° S 05:17:34 10° SE visible
29 Apr -0.2 05:46:40 10° SW 05:49:06 20° S 05:51:32 10° ESE visible
30 Apr 0.2 04:46:14 17° SSE 04:46:14 17° SSE 04:47:53 10° SE visible
